Volver al catálogo

ONEWEB-0062

ActivoComunicacionesPO
NORAD 45163·PAYLOAD·🇬🇧 United Kingdom

Lanzado Feb 6, 2020 desde Baikonur Cosmodrome

Loading…

Próximos Pases (próximas 24 horas)

TLE

ActualizadoSource: CelesTrak SupGP

Época: Sep 14, 2026, 21:33 UTC

1 45163C 20008AJ  26257.89810600 -.00000266  00000+0 -76405-3 0  2570
2 45163  87.8905  18.4078 0001577  92.6182  20.6861 13.10370623    14

Sigue ONEWEB-0062 en tiempo real con AllMySat

Download on the App Store